Baltimore, MD

10:18 PM EST on February 19, 2017 (GMT -0500)
Baltimore-Washington International

Weather History for KBWI - September, 2013

Change the Weather History Date:

Thursday, September 5, 2013

  Actual Average Record
Temperature  
Mean Temperature 74 °F 72 °F  
Max Temperature 85 °F 82 °F 96 °F (1954)
Min Temperature 62 °F 62 °F 47 °F (1997)
Degree Days  
Heating Degree Days 0 0  
Month to date heating degree days 0 0  
Since 1 July heating degree days 0 1  
Cooling Degree Days 9 7  
Month to date cooling degree days 59 37  
Year to date cooling degree days 1204 1047  
Growing Degree Days 23 (Base 50)    
Moisture  
Dew Point 55 °F    
Average Humidity 58    
Maximum Humidity 78    
Minimum Humidity 37    
Precipitation  
Precipitation 0.00 in 0.12 in 4.39 in (1979)
Month to date precipitation 0.01 0.60  
Year to date precipitation 25.58 28.45  
Snow  
Snow 0.00 in 0.00 in - ()
Month to date snowfall 0.0 0.0  
Since 1 July snowfall 0.0 0.0  
Snow Depth 0.00 in    
Sea Level Pressure  
Sea Level Pressure 30.04 in    
Wind  
Wind Speed 8 mph (WNW)    
Max Wind Speed 21 mph    
Max Gust Speed 25 mph    
Visibility 10 miles    
Events      
T = Trace of Precipitation, MM = Missing Value Source: NWS Daily Summary

Daily Weather History Graph

Daily Weather History Graph

Search for Another Location

Airport or City:

Trip Planner

Search our weather history database for the weather conditions in past years. The results will help you decide how hot, cold, wet, or windy it might be!

Date:

Astronomy

Sep. 05, 2013 Rise Set
Actual Time 6:39 AM EDT 7:30 PM EDT
Civil Twilight 6:11 AM EDT 7:57 PM EDT
Nautical Twilight 5:39 AM EDT 8:30 PM EDT
Astronomical Twilight 5:06 AM EDT 9:03 PM EDT
Moon 6:48 AM EDT (9/5) 7:21 PM EDT (9/5)
Length of Visible Light 13h 45m
Length of Day
12h 51m
New Moon, 0% of the Moon is Illuminated
Sep 5
New Moon
Sep 12
First Quarter
Sep 19
Full
Sep 26
Last Quarter
Oct 4
New

Hourly Weather History & Observations

Time (EDT) Temp. Heat Index Dew Point Humidity Pressure Visibility Wind Dir Wind Speed Gust Speed Precip Events Conditions
12:54 AM 63.0 °F - 55.0 °F 75% 30.04 in 10.0 mi West 3.5 mph - N/A   Clear
1:54 AM 64.0 °F - 57.0 °F 78% 30.04 in 10.0 mi Calm Calm - N/A   Clear
2:54 AM 63.0 °F - 55.9 °F 78% 30.03 in 10.0 mi WSW 3.5 mph - N/A   Clear
3:54 AM 63.0 °F - 55.0 °F 75% 30.02 in 10.0 mi WSW 4.6 mph - N/A   Clear
4:54 AM 63.0 °F - 55.9 °F 78% 30.03 in 10.0 mi WSW 3.5 mph - N/A   Partly Cloudy
5:54 AM 63.0 °F - 55.9 °F 78% 30.03 in 10.0 mi WSW 4.6 mph - N/A   Partly Cloudy
6:54 AM 63.0 °F - 55.9 °F 78% 30.04 in 9.0 mi WSW 3.5 mph - N/A   Partly Cloudy
7:54 AM 66.9 °F - 55.9 °F 68% 30.04 in 10.0 mi West 5.8 mph - N/A   Partly Cloudy
8:54 AM 73.9 °F - 55.9 °F 53% 30.03 in 10.0 mi West 9.2 mph - N/A   Scattered Clouds
9:54 AM 78.1 °F - 55.9 °F 46% 30.04 in 10.0 mi West 16.1 mph - N/A   Scattered Clouds
10:54 AM 80.1 °F 80.4 °F 57.0 °F 45% 30.04 in 10.0 mi NW 11.5 mph 18.4 mph N/A   Scattered Clouds
11:54 AM 81.0 °F 81.0 °F 57.0 °F 44% 30.04 in 10.0 mi West 12.7 mph 18.4 mph N/A   Mostly Cloudy
12:54 PM 82.0 °F 81.7 °F 57.0 °F 42% 30.03 in 10.0 mi WNW 12.7 mph - N/A   Mostly Cloudy
1:54 PM 82.9 °F 82.1 °F 55.9 °F 39% 30.02 in 10.0 mi NW 13.8 mph 20.7 mph N/A   Mostly Cloudy
2:54 PM 84.9 °F 83.6 °F 55.0 °F 36% 30.01 in 10.0 mi West 16.1 mph 21.9 mph N/A   Mostly Cloudy
3:54 PM 84.0 °F 82.9 °F 55.0 °F 37% 30.01 in 10.0 mi WNW 12.7 mph - N/A   Scattered Clouds
4:54 PM 82.0 °F 81.2 °F 53.1 °F 37% 30.01 in 10.0 mi WNW 9.2 mph 19.6 mph N/A   Mostly Cloudy
5:54 PM 81.0 °F 80.7 °F 55.0 °F 41% 30.01 in 10.0 mi WNW 9.2 mph - N/A   Scattered Clouds
6:54 PM 79.0 °F - 55.0 °F 44% 30.02 in 10.0 mi West 9.2 mph - N/A   Scattered Clouds
7:54 PM 77.0 °F - 54.0 °F 45% 30.04 in 10.0 mi WNW 6.9 mph - N/A   Scattered Clouds
8:54 PM 73.9 °F - 52.0 °F 46% 30.08 in 10.0 mi NW 4.6 mph - N/A   Scattered Clouds
9:54 PM 72.0 °F - 54.0 °F 53% 30.10 in 10.0 mi NNE 4.6 mph - N/A   Scattered Clouds
10:54 PM 70.0 °F - 46.0 °F 42% 30.12 in 10.0 mi NE 8.1 mph - N/A   Scattered Clouds
11:54 PM 68.0 °F - 46.0 °F 45% 30.13 in 10.0 mi NE 4.6 mph - N/A   Partly Cloudy